Location: Pedimozza
(42.0500°N, 9.3500°E)
Time: 17:51:55
(UTC+00:00)

Starlink (trailer) - Pass Details

Date: 19 August 2019
Orbit: 549 x 551 km, 53.0° (Epoch: 17 October)

Event Time Altitude Azimuth Distance (km) Brightness Sun altitude
Rises 20:14:50 0° 304° (NW) 2,727 8.8 -19.8°
Reaches altitude 10° 20:17:06 10° 300° (WNW) 1,830 7.4 -20.2°
Maximum altitude 20:21:10 54° 223° (SW) 669 4.0 -20.7°
Enters shadow 20:21:45 49° 189° (S) 712 3.9 -20.8°
